Skip Page Navigation
NASA JPL Caltech
NASA Logo - Jet Propulsion Laboratory + View the NASA Portal
+ Near-Earth Object (NEO) Program
Search JPL
JPL Home Earth Solar System Stars & Galaxies Technology
JPL Solar System Dynamics
BODIES ORBITS EPHEMERIDES TOOLS PHYSICAL DATA DISCOVERY FAQ SITE MAP
JPL Small-Body Database Browser
Search: [ help ]  
(2003 CG11)
Classification: Apollo [NEO, PHA]          SPK-ID: 3147581
Ephemeris | Orbit Diagram | Orbital Elements | Physical Parameters | Close-Approach Data ]

[ hide orbit diagram ]
Orbit Diagram
Note: Make sure you have Java enabled on your browser to see the applet. This applet is provided as a 3D orbit visualization tool. The applet was implemented using 2-body methods, and hence should not be used for determining accurate long-term trajectories (over several years or decades) or planetary encounter circumstances. For accurate long-term ephemerides, please instead use our Horizons system.
Orbit Viewer

Additional Notes: the orbits shown in the applet are color coded. The planets are white lines, and the asteroid/comet is a blue line. The bright white line indicates the portion of the orbit that is above the ecliptic plane, and the darker portion is below the ecliptic plane. Likewise for the asteroid/comet orbit, the light blue indicates the portion above the ecliptic plane, and the dark blue the portion below the ecliptic plane.

Orbit Viewer applet originally written and kindly provided by Osamu Ajiki (AstroArts), and further modified by Ron Baalke (JPL).


Orbital Elements at Epoch 2456400.5 (2013-Apr-18.0) TDB
Reference: JPL 19 (heliocentric ecliptic J2000)
 Element Value Uncertainty (1-sigma)   Units 
e .7358788071008245 6.0598e-08  
a 2.589112303437047 4.4696e-08 AU
q .6838394301337248 1.4901e-07 AU
i 21.26643227470276 7.2685e-05 deg
node 130.5857745566183 2.9266e-05 deg
peri 107.0883895233622 2.3981e-05 deg
M 145.2514872976912 1.3042e-05 deg
tp 2455786.536084849722
(2011-Aug-13.03608485)
4.0045e-05 JED
period 1521.685000037953
4.17
3.9403e-05
1.079e-07
d
yr
n .2365798440485521 6.1261e-09 deg/d
Q 4.494385176740369 7.7586e-08 AU
  Orbit Determination Parameters
   # obs. used (total)      81  
   data-arc span      1657 days (4.54 yr)  
   first obs. used      2003-01-27  
   last obs. used      2007-08-11  
   planetary ephem.      DE405  
   SB-pert. ephem.      SB405-CPV-2  
   condition code      0  
   fit RMS      .49316  
   data source      ORB  
   producer      Otto Matic  
   solution date      2011-Sep-14 19:49:30  

Additional Information
 Earth MOID = .0202071 AU 
 T_jup = 2.900 
[ show covariance matrix ]

Ephemeris | Orbit Diagram | Orbital Elements | Physical Parameters | Close-Approach Data ]

Physical Parameter Table
Parameter Symbol Value Units Sigma Reference Notes
absolute magnitude H 20.441 mag .5559 19 autocmod 2.5a

[ show close-approach data ]
Ephemeris | Orbit Diagram | Orbital Elements | Physical Parameters | Close-Approach Data ]
ABOUT SSD CREDITS/AWARDS PRIVACY/COPYRIGHT GLOSSARY LINKS
FirstGov 2013-May-19 20:59 UT
(server date/time)  
NASA Home Page
Site Manager:   Donald K. Yeomans
Webmaster  Alan B. Chamberlin